#timestamp,LO_Frequency,Hit,StdDev 
1556038815.4,286047002.2,N
1556038835.2,286047002.6,N
1556038855.0,286046998.4,N
1556038855.9,286046998.4,N
1556038875.8,286046997.3,N
1556038895.6,286046996.7,N
1556038915.5,286046999.6,N
1556038935.3,286046997.7,N
1556038955.1,286046999.2,N
1556038975.9,286046997.4,N
1556038995.7,286046997.1,N
1556039015.5,286046996.5,N
1556039035.4,286046997.3,N
1556039055.2,286046997.7,N
1556039075.1,286046995.4,N
1556039076.0,286046995.4,N
1556039095.8,286046996.2,N
1556039115.6,286046996.2,N
1556039135.5,286046994.4,N
1556039155.3,286046994.3,N
1556039175.1,286046993.8,N
1556039195.9,286046993.5,N
1556039215.7,286046995.9,N
1556039235.6,286046994.5,N
1556039255.4,286046994.7,N
1556039275.2,286046994.4,N
1556039295.1,286046994.7,N
1556039296.0,286046994.7,N
1556039315.8,286046994.5,N
1556039335.6,286046993.7,N
1556039355.5,286046994.2,N
1556039375.3,286046994.5,N
1556039395.2,286046994.3,Y
1556039415.9,286046996.8,P
1556039435.7,286046999.6,N
1556039455.6,286046997.0,N
1556039475.4,286046997.0,N
1556039495.2,286046997.7,N
1556039515.1,286046997.7,N
1556039516.0,286046997.7,N
1556039535.8,286046995.4,Y
1556039555.7,286046996.6,P
1556039575.5,286046996.9,P
1556039595.3,286046999.6,N
1556039615.2,286046998.8,N
1556039635.0,286046996.5,Y
1556039635.9,286046996.5,P
1556039655.8,286047000.2,N
1556039675.6,286047000.4,N
1556039695.4,286047000.7,N
1556039715.3,286047000.6,N
1556039735.1,286047001.0,N
1556039755.8,286046998.1,N
1556039775.7,286046999.0,N
1556039795.5,286046998.1,N
1556039815.4,286047002.1,N
1556039835.2,286047002.8,N
1556039855.0,286047000.5,N
1556039855.9,286047000.5,N
1556039875.8,286047000.2,N
1556039895.6,286046999.8,N
1556039915.4,286047004.4,N
1556039935.3,286047003.9,N
1556039955.1,286047011.9,Y
1556039975.9,286047001.8,P
1556039995.7,286047004.3,P
1556040015.5,286047002.0,N
1556040035.4,286047000.5,N
1556040055.2,286047000.0,N
1556040075.0,286047003.9,N
1556040075.9,286047003.9,N
1556040095.8,286047001.5,N
1556040115.6,286047003.2,N
1556040135.5,286047003.8,N
1556040155.3,286047003.3,N
1556040175.1,286047006.0,Y
1556040195.9,286047000.2,P
1556040215.7,286046998.6,N
1556040235.5,286047000.5,N
1556040255.4,286047000.6,N
1556040275.2,286047002.6,N
1556040295.1,286047000.0,N
1556040296.0,286047000.0,N
1556040315.8,286047001.0,N
1556040335.6,286047001.2,N
1556040355.5,286046999.2,N
1556040375.3,286046997.6,N
1556040395.2,286046996.3,N
1556040415.9,286046995.9,N
1556040435.7,286046997.2,N
1556040455.6,286046997.6,N
1556040475.4,286046998.9,N
1556040495.2,286047001.0,N
1556040515.1,286046999.8,N
1556040516.0,286046999.8,N
1556040535.8,286047001.1,N
1556040555.7,286047000.7,N
1556040575.5,286046999.8,N
1556040595.3,286047000.3,N
1556040615.2,286046998.6,N
1556040635.9,286046998.4,N
1556040655.7,286046997.2,N
1556040675.6,286046999.1,N
1556040695.4,286047000.5,N
1556040715.2,286046997.2,N
1556040735.1,286046996.9,N
1556040736.0,286046996.9,N
1556040755.8,286046997.0,N
1556040775.7,286047000.5,N
1556040795.5,286047002.8,N
1556040815.3,286047001.6,N
1556040835.2,286047001.4,N
1556040855.0,286047001.8,N
1556040855.9,286047001.8,N
1556040875.8,286046998.3,N
1556040895.6,286047000.5,N
1556040915.4,286047003.7,N
1556040935.3,286047001.5,N
1556040955.1,286047002.5,N
1556040975.8,286047000.7,N
1556040995.7,286046998.1,N
1556041015.5,286046998.2,N
1556041035.4,286046998.3,N
1556041055.2,286046998.4,N
1556041075.0,286046998.3,N
1556041075.9,286046998.3,N
1556041095.8,286047000.9,N
1556041115.6,286046997.4,N
1556041135.4,286046999.4,N
1556041155.3,286046999.6,N
1556041175.1,286046999.0,N
1556041195.9,286047000.7,N
1556041215.7,286047003.9,N
1556041235.5,286047003.5,N
1556041255.4,286047003.1,N
1556041275.2,286047003.3,N
1556041295.0,286047000.2,N
1556041295.9,286047000.2,N
1556041315.8,286046999.2,N
1556041335.6,286046995.1,N
1556041355.4,286046996.1,N
1556041375.3,286046995.7,N
1556041395.1,286046997.2,N
1556041415.9,286046997.8,N
1556041435.7,286046998.7,N
1556041455.5,286046997.2,N
1556041475.4,286047000.3,N
1556041495.2,286047000.0,N
1556041515.0,286046999.9,N
1556041515.9,286046999.9,N
1556041535.8,286047001.6,N
1556041555.6,286047000.7,N
1556041575.5,286047000.9,N
1556041595.3,286047000.5,N
1556041615.1,286046998.2,N
1556041635.9,286046996.7,N
1556041655.7,286046995.0,N
1556041675.5,286046995.3,N
1556041695.4,286046997.6,N
1556041715.2,286046997.5,N
1556041735.1,286046995.6,N
1556041736.0,286046995.6,N
1556041755.8,286046995.4,N
1556041775.6,286046996.8,N
1556041795.5,286046998.7,N
1556041815.3,286046996.9,N
1556041835.1,286046996.8,N
1556041855.9,286046997.0,N
1556041875.7,286046997.4,N
1556041895.6,286046996.8,N
1556041915.4,286047002.4,N
1556041935.2,286047002.3,N
1556041955.1,286047001.7,N
1556041956.0,286047001.7,N
1556041975.8,286047001.7,N
1556041995.6,286047005.6,N
1556042015.5,286047003.2,N
1556042035.3,286047004.1,N
1556042055.2,286047005.9,N
1556042075.9,286047004.1,N
1556042095.7,286047004.5,N
1556042115.6,286047007.4,N
1556042135.4,286047005.4,N
1556042155.2,286047005.0,N
1556042175.1,286047004.4,N
1556042176.0,286047004.4,N
1556042195.8,286047001.0,N
1556042215.7,286047000.4,N
1556042235.5,286046998.8,N
1556042255.4,286047000.0,N
1556042275.2,286047000.9,N
1556042295.1,286047000.9,N
1556042296.0,286047000.9,N
1556042315.8,286046998.3,N
1556042335.7,286046998.9,N
1556042355.5,286046999.1,N
1556042375.3,286046998.7,N
1556042395.2,286046998.6,N
